EW0051 Weather Reports


Display with metric or nautical units.
time (UTC)temp
F
wind
direction
speed
MPH
gust
MPH
rain 1hr
in
rain 24hr
in
rain mn
in
humidity
%
barometer
mb
20260502195747 59 13 0.0 3.0 0.00 0.00 0.00 78 1013.7
20260502195224 60 20 0.0 3.0 0.00 0.00 0.00 77 1013.8
20260502194746 60 356 0.0 3.0 0.00 0.00 0.00 76 1013.8
20260502194219 61 351 0.0 3.0 0.00 0.00 0.00 75 1013.8
20260502193749 61 359 0.0 3.0 0.00 0.00 0.00 74 1013.7
20260502193225 62 359 0.0 4.0 0.00 0.00 0.00 72 1013.7
20260502192750 62 353 0.0 4.0 0.00 0.00 0.00 70 1013.7
20260502192312 62 5 0.0 2.0 0.00 0.00 0.00 67 1013.7
20260502191253 63 9 0.0 4.0 0.00 0.00 0.00 62 1013.7
20260502190722 63 9 1.0 4.0 0.00 0.00 0.00 61 1013.7
20260502190251 64 344 0.0 4.0 0.00 0.00 0.00 61 1013.7
20260502185808 64 3 0.0 4.0 0.00 0.00 0.00 61 1013.6
20260502185232 65 15 0.0 5.0 0.00 0.00 0.00 62 1013.6
20260502184758 65 15 0.0 6.0 0.00 0.00 0.00 63 1013.5
20260502184224 66 10 0.0 6.0 0.00 0.00 0.00 64 1013.5
20260502183746 67 12 0.0 6.0 0.00 0.00 0.00 66 1013.6
20260502183220 67 352 2.0 6.0 0.00 0.00 0.00 66 1013.6
20260502182253 68 6 1.0 5.0 0.00 0.00 0.00 68 1013.6
20260502181726 69 0 1.0 4.0 0.00 0.00 0.00 68 1013.6
20260502181242 69 351 0.0 6.0 0.00 0.00 0.00 68 1013.6
20260502180809 70 348 2.0 6.0 0.00 0.00 0.00 67 1013.5
20260502180236 70 9 1.0 5.0 0.00 0.00 0.00 67 1013.5
20260502164334 74 324 0.0 5.0 0.00 0.00 0.00 59 1013.7
20260502163945 74 349 2.0 9.0 0.00 0.00 0.00 59 1013.8
20260502162810 75 30 1.0 9.0 0.00 0.00 0.00 58 1013.9
20260502162327 75 345 1.0 9.0 0.00 0.00 0.00 59 1013.9
20260502161849 74 304 2.0 9.0 0.00 0.00 0.00 58 1014.0
20260502160818 74 337 0.0 6.0 0.00 0.00 0.00 57 1013.9
20260502160330 74 180 1.0 6.0 0.00 0.00 0.00 58 1014.0
20260502152305 74 266 2.0 9.0 0.00 0.00 0.00 57 1014.3
20260502151819 74 5 2.0 9.0 0.00 0.00 0.00 56 1014.4
20260502151339 75 276 2.0 7.0 0.00 0.00 0.00 55 1014.4
20260502150804 75 184 1.0 7.0 0.00 0.00 0.00 55 1014.3
20260502150320 76 276 2.0 6.0 0.00 0.00 0.00 54 1014.4
20260502130317 76 304 1.0 6.0 0.00 0.00 0.00 48 1015.3
20260502123800 77 334 1.0 10.0 0.00 0.00 0.00 44 1015.5
20260502123321 77 352 3.0 10.0 0.00 0.00 0.00 42 1015.5
20260502122247 76 5 1.0 9.0 0.00 0.00 0.00 43 1015.4
20260502121807 76 355 1.0 9.0 0.00 0.00 0.00 41 1015.5
20260502121324 76 332 2.0 9.0 0.00 0.00 0.00 42 1015.6
20260502120251 75 300 2.0 7.0 0.00 0.00 0.00 42 1015.6
20260502115719 74 37 2.0 7.0 0.00 0.00 0.00 42 1015.7
20260502115239 73 171 0.0 7.0 0.00 0.00 0.00 46 1015.6
20260502114757 72 5 0.0 7.0 0.00 0.00 0.00 46 1015.8
20260502114221 72 19 1.0 7.0 0.00 0.00 0.00 46 1015.9
20260502113837 72 352 2.0 7.0 0.00 0.00 0.00 46 1015.9
20260502112856 72 0 1.0 6.0 0.00 0.00 0.00 47 1015.9
20260502111727 72 290 2.0 10.0 0.00 0.00 0.00 47 1016.0
20260502111251 73 279 1.0 6.0 0.00 0.00 0.00 46 1016.0
20260502110717 73 8 3.0 7.0 0.00 0.00 0.00 44 1016.0
20260502110231 74 337 1.0 9.0 0.00 0.00 0.00 45 1015.9
20260502105753 74 346 3.0 9.0 0.00 0.00 0.00 44 1016.0
20260502105205 74 317 1.0 6.0 0.00 0.00 0.00 44 1015.9
20260502104722 73 197 0.0 7.0 0.00 0.00 0.00 47 1015.9
20260502104233 72 286 2.0 7.0 0.00 0.00 0.00 48 1016.0
20260502103751 71 191 1.0 4.0 0.00 0.00 0.00 50 1016.0
20260502103309 71 337 1.0 3.0 0.00 0.00 0.00 49 1015.9
20260502102237 71 186 0.0 6.0 0.00 0.00 0.00 47 1015.9
20260502101227 72 146 3.0 9.0 0.00 0.00 0.00 44 1016.1
20260502100657 72 352 2.0 5.0 0.00 0.00 0.00 44 1016.2
20260502100211 73 186 2.0 9.0 0.00 0.00 0.00 42 1016.1
20260502091233 74 210 2.0 7.0 0.00 0.00 0.00 39 1016.0
20260502090658 74 194 2.0 6.0 0.00 0.00 0.00 38 1016.0
20260502090216 74 174 2.0 10.0 0.00 0.00 0.00 39 1016.1
20260502071215 65 171 0.0 5.0 0.00 0.00 0.00 52 1016.7
20260502070642 64 180 0.0 3.0 0.00 0.00 0.00 54 1016.7
20260502070203 63 194 0.0 3.0 0.00 0.00 0.00 53 1016.8
20260502065725 61 180 1.0 5.0 0.00 0.00 0.00 54 1016.7
20260502065147 60 186 0.0 5.0 0.00 0.00 0.00 55 1016.7
20260502064800 60 214 1.0 5.0 0.00 0.00 0.00 55 1016.7
20260502063726 59 200 1.0 5.0 0.00 0.00 0.00 56 1016.7
20260502063157 59 180 1.0 6.0 0.00 0.00 0.00 57 1016.8
20260502062717 58 154 0.0 6.0 0.00 0.00 0.00 58 1016.8
20260502062234 58 180 1.0 5.0 0.00 0.00 0.00 59 1016.7
20260502061200 57 188 1.0 6.0 0.00 0.00 0.00 60 1016.8
20260502060717 56 170 3.0 5.0 0.00 0.00 0.00 60 1016.8
20260502060237 56 180 1.0 4.0 0.00 0.00 0.00 62 1016.9
20260502055702 55 191 1.0 5.0 0.00 0.00 0.00 63 1016.8
20260502055224 54 180 1.0 5.0 0.00 0.00 0.00 65 1016.8
20260502054644 54 180 0.0 2.0 0.00 0.00 0.00 66 1016.8
20260502054204 53 178 0.0 3.0 0.00 0.00 0.00 67 1016.9
20260502053732 53 181 0.0 3.0 0.00 0.00 0.00 68 1016.8
20260502053154 53 186 0.0 1.0 0.00 0.00 0.00 70 1016.9
20260502052631 52 190 0.0 3.0 0.00 0.00 0.00 70 1016.9
20260502052249 51 190 1.0 3.0 0.00 0.00 0.00 72 1016.9
20260502051227 50 180 0.0 0.0 0.00 0.00 0.00 74 1016.9
20260502050704 50 180 0.0 0.0 0.00 0.00 0.00 75 1016.9
20260502050232 49 180 0.0 0.0 0.00 0.00 0.00 75 1017.0
20260502045129 49 180 0.0 0.0 0.00 0.00 0.00 77 1017.0
20260502044652 49 180 0.0 0.0 0.00 0.00 0.00 77 1017.0
20260502044319 49 180 0.0 0.0 0.00 0.00 0.00 78 1017.1
20260502042728 48 180 0.0 0.0 0.00 0.00 0.00 79 1017.1
20260502041621 48 180 0.0 0.0 0.00 0.00 0.00 80 1017.1
20260502041156 48 180 0.0 0.0 0.00 0.00 0.00 80 1017.2
20260502040634 48 180 0.0 0.0 0.00 0.00 0.00 80 1017.2
20260502040254 48 180 0.0 0.0 0.00 0.00 0.00 80 1017.1
20260502035244 48 180 0.0 0.0 0.00 0.00 0.00 79 1017.2
20260502034146 49 180 0.0 0.0 0.00 0.00 0.00 79 1017.3
20260502033715 49 180 0.0 0.0 0.00 0.00 0.00 79 1017.3
20260502032700 49 180 0.0 0.0 0.00 0.00 0.00 79 1017.3
20260502032129 49 180 0.0 0.0 0.00 0.00 0.00 79 1017.3
20260502031657 49 180 0.0 0.0 0.00 0.00 0.00 78 1017.4
20260502031134 49 180 0.0 0.0 0.00 0.00 0.00 78 1017.5
20260502030703 49 180 0.0 0.0 0.00 0.00 0.00 78 1017.6
20260502030131 49 180 0.0 0.0 0.00 0.00 0.00 78 1017.5
20260502025629 50 180 0.0 0.0 0.00 0.00 0.00 78 1017.5
20260502025100 50 180 0.0 0.0 0.00 0.00 0.00 78 1017.6
20260502024625 50 180 0.0 0.0 0.00 0.00 0.00 78 1017.7
20260502024158 50 180 0.0 0.0 0.00 0.00 0.00 78 1017.6
20260502023100 50 180 0.0 0.0 0.00 0.00 0.00 77 1017.6
20260502022626 50 180 0.0 0.0 0.00 0.00 0.00 78 1017.8
20260502022249 50 180 0.0 0.0 0.00 0.00 0.00 77 1017.8
20260502021918 50 180 0.0 0.0 0.00 0.00 0.00 77 1017.9
20260502014727 51 180 0.0 0.0 0.00 0.00 0.00 77 1018.2
20260502013136 51 180 0.0 0.0 0.00 0.00 0.00 76 1018.3
20260502012611 51 180 0.0 0.0 0.00 0.00 0.00 76 1018.3
20260502012148 51 180 0.0 0.0 0.00 0.00 0.00 76 1018.4
20260502011058 51 180 0.0 0.0 0.00 0.00 0.00 76 1018.6
20260502010629 52 180 0.0 0.0 0.00 0.00 0.00 76 1018.6
20260502010057 52 180 0.0 0.0 0.00 0.00 0.00 76 1018.7
20260502005622 52 180 0.0 0.0 0.00 0.00 0.00 76 1018.7
20260502005103 52 180 0.0 0.0 0.00 0.00 0.00 76 1018.8
20260502004632 52 180 0.0 0.0 0.00 0.00 0.00 76 1018.8
20260502004102 52 180 0.0 0.0 0.00 0.00 0.00 75 1018.9
20260502003638 52 180 0.0 0.0 0.00 0.00 0.00 75 1018.9
20260502003120 52 180 0.0 0.0 0.00 0.00 0.00 75 1019.0
20260502002642 53 180 0.0 0.0 0.00 0.00 0.00 75 1019.0
20260502002119 53 180 0.0 0.0 0.00 0.00 0.00 75 1019.1
20260502001556 53 180 0.0 0.0 0.00 0.00 0.00 75 1019.1
20260502001130 53 180 0.0 0.0 0.00 0.00 0.00 74 1019.1
20260502000606 53 180 0.0 0.0 0.00 0.00 0.00 74 1019.2
20260502000130 53 180 0.0 0.0 0.00 0.00 0.00 74 1019.2
20260501235602 53 180 0.0 0.0 0.00 0.00 0.00 73 1019.2
20260501235136 53 180 0.0 0.0 0.00 0.00 0.00 73 1019.2
20260501234607 53 180 0.0 0.0 0.00 0.00 0.00 73 1019.2
20260501234044 54 180 0.0 0.0 0.00 0.00 0.00 72 1019.3
20260501233619 54 180 0.0 0.0 0.00 0.00 0.00 72 1019.4
20260501233051 54 180 0.0 0.0 0.00 0.00 0.00 72 1019.5
20260501232621 54 180 0.0 0.0 0.00 0.00 0.00 71 1019.4
20260501231606 54 180 0.0 0.0 0.00 0.00 0.00 71 1019.5
20260501231040 54 180 0.0 0.0 0.00 0.00 0.00 71 1019.5
20260501230614 55 180 0.0 0.0 0.00 0.00 0.00 70 1019.5
20260501230045 55 180 0.0 0.0 0.00 0.00 0.00 70 1019.5
20260501225614 55 180 0.0 0.0 0.00 0.00 0.00 69 1019.5
20260501225059 55 180 0.0 0.0 0.00 0.00 0.00 69 1019.6
20260501224622 55 180 0.0 0.0 0.00 0.00 0.00 69 1019.6
20260501224053 55 180 0.0 0.0 0.00 0.00 0.00 69 1019.7
20260501223612 56 180 0.0 0.0 0.00 0.00 0.00 69 1019.8
20260501223041 56 180 0.0 0.0 0.00 0.00 0.00 69 1019.7
20260501222621 56 180 0.0 0.0 0.00 0.00 0.00 69 1019.7
20260501222054 56 180 0.0 0.0 0.00 0.00 0.00 68 1019.8
20260501221528 56 180 0.0 0.0 0.00 0.00 0.00 68 1019.8
20260501221102 56 180 0.0 0.0 0.00 0.00 0.00 67 1019.8
20260501220529 57 180 0.0 0.0 0.00 0.00 0.00 67 1019.8
20260501220057 57 180 0.0 0.0 0.00 0.00 0.00 67 1019.8
20260501215621 57 180 0.0 0.0 0.00 0.00 0.00 67 1019.8
20260501215150 57 180 0.0 0.0 0.00 0.00 0.00 67 1019.8
20260501214054 58 180 0.0 0.0 0.00 0.00 0.00 66 1019.8
20260501213622 58 180 0.0 0.0 0.00 0.00 0.00 65 1019.9
20260501212609 58 180 0.0 0.0 0.00 0.00 0.00 65 1020.0
20260501212047 59 180 0.0 0.0 0.00 0.00 0.00 64 1020.0
20260501211526 59 180 0.0 0.0 0.00 0.00 0.00 64 1020.0
20260501211100 59 180 0.0 0.0 0.00 0.00 0.00 63 1020.0
20260501210537 59 180 0.0 0.0 0.00 0.00 0.00 63 1020.0
20260501210108 60 180 0.0 0.0 0.00 0.00 0.00 63 1020.0
20260501205542 60 180 0.0 0.0 0.00 0.00 0.00 62 1020.0
20260501205010 60 180 0.0 0.0 0.00 0.00 0.00 62 1020.0
20260501204537 60 180 0.0 0.0 0.00 0.00 0.00 62 1020.1
20260501204201 61 180 0.0 0.0 0.00 0.00 0.00 61 1020.1
20260501202531 62 180 0.0 0.0 0.00 0.00 0.00 60 1020.1
20260501202055 62 180 0.0 0.0 0.00 0.00 0.00 59 1020.2
20260501201139 63 180 0.0 0.0 0.00 0.00 0.00 58 1020.2
20260501200710 63 180 0.0 0.0 0.00 0.00 0.00 57 1020.2